Location: Auttagershofen
(48.1940°N, 10.0237°E)
Time: 23:46:54
(UTC+00:00)

Cosmos 1727 Rocket - Pass Details

Date: 18 January 2026
Orbit: 959 x 997 km, 82.9° (Epoch: 16 February)

Event Time Altitude Azimuth Distance (km) Brightness Sun altitude
Rises 06:20:01 0° 350° (N) 3,672 6.7 -7.3°
Reaches altitude 10° 06:22:33 10° 351° (N) 2,717 6.0 -6.9°
Maximum altitude 06:28:47 88° 82° (E) 969 4.1 -6.0°
Drops below altitude 10° 06:34:56 10° 172° (S) 2,686 6.8 -5.0°
Sets 06:37:25 0° 173° (S) 3,628 7.5 -4.6°
